Regional Weather Roundup
Issued by NWS

Home | Current Version | Previous Version | Graphics & Text | Print | Product List | Glossary On
Versions: 1 2 3 4 5 6 7 8 9 10 11 12 13 14 15 16 17 18 19 20 21 22 23 24 25 26 27 28 29 30 31 32 33 34 35 36 37 38 39 40 41 42 43 44 45 46 47 48 49 50
000
ASUS43 KMKX 221800
RWRWI

WISCONSIN REGIONAL WEATHER ROUNDUP
NATIONAL WEATHER SERVICE MILWAUKEE/SULLIVAN WI
100 PM CDT THU JUN 22 2017

NOTE: "FAIR" INDICATES FEW OR NO CLOUDS BELOW 12,000 FEET WITH NO
SIGNIFICANT WEATHER AND/OR OBSTRUCTIONS TO VISIBILITY.

WIZ001-002-006>008-014>016-023>028-221900-
NORTHWEST WISCONSIN

CITY           SKY/WX    TMP DP  RH WIND       PRES   REMARKS
SUPERIOR ARPT  NOT AVBL
ASHLAND        CLOUDY    70  54  56 SW6       29.72R
6HR MIN TEMP:  59; 6HR MAX TEMP:  73;

HAYWARD        CLOUDY    67  60  78 S5        29.72F
6HR MIN TEMP:  65; 6HR MAX TEMP:  68; 6HR PCP: TRACE;

SIREN          LGT RAIN  65  59  79 CALM      29.73F
CUMBERLAND     LGT RAIN  63  59  88 SE3       29.74F
RICE LAKE      RAIN      64  62  93 SE6       29.74F
6HR MIN TEMP:  63; 6HR MAX TEMP:  67; 6HR PCP:  0.32;

CHETEK         RAIN      65  64  98 CALM      29.77F
LADYSMITH      RAIN      66  64  93 SW6       29.79R
EAU CLAIRE     LGT RAIN  68  68 100 NE6       29.70F FOG
MENOMONIE      LGT RAIN  68  68  99 CALM      29.71F
6HR MIN TEMP:  66; 6HR MAX TEMP:  71; 6HR PCP:  0.24;

NEW RICHMOND   RAIN      65  64  96 E7        29.69F
OSCEOLA        LGT RAIN  66  66 100 E8        29.69F
$$

WIZ003>005-009-010-017-018-221900-
NORTH CENTRAL WISCONSIN

CITY           SKY/WX    TMP DP  RH WIND       PRES   REMARKS
MANITOWISH WTR CLOUDY    65  65 100 SW9       29.75R
ARBOR VITAE    RAIN      65  63  93 W6        29.76R
WOODRUFF       RAIN      65  63  93 W6        29.76R
RHINELANDER    RAIN      67  67 100 W8        29.78R FOG
6HR MIN TEMP:  64; 6HR MAX TEMP:  71; 6HR PCP:  0.04;

EAGLE RIVER    RAIN      66  64  94 W8        29.75R
LAND O LAKES   RAIN      66  64  91 SW7       29.76R
6HR MIN TEMP:  64; 6HR MAX TEMP:  68; 6HR PCP:  0.01;

PHILLIPS       RAIN      64  64 100 SW5       29.77R
TOMAHAWK       NOT AVBL
MEDFORD        RAIN      67  66  96 W6        29.78R
MERRILL        RAIN      70  68  93 W9        29.76R
6HR MIN TEMP:  65; 6HR MAX TEMP:  73; 6HR PCP:  0.01;

$$

WIZ029-030-035-036-043>047-221900-
CENTRAL WISCONSIN

CITY           SKY/WX    TMP DP  RH WIND       PRES   REMARKS
WAUSAU         RAIN      69  68  96 SW8       29.76R FOG
6HR MIN TEMP:  65; 6HR MAX TEMP:  70; 6HR PCP:  0.20;

MOSINEE        LGT RAIN  68  66  94 W7        29.79R FOG
MARSHFIELD     HVY RAIN  66  63  90 NW15      29.81R VSB 1/2
6HR MIN TEMP:  66; 6HR MAX TEMP:  70; 6HR PCP:  1.09;

STEVENS POINT  CLOUDY    68  68 100 W5        29.76R
WAUPACA        CLOUDY    76  68  74 SW8       29.75R
6HR MIN TEMP:  66; 6HR MAX TEMP:  78; 6HR PCP:  0.02;

WAUTOMA        CLOUDY    74  67  78 SW10      29.79R
6HR MIN TEMP:  69; 6HR MAX TEMP:  75;

WISC RAPIDS    CLOUDY    72  68  87 W8        29.79R
6HR MIN TEMP:  69; 6HR MAX TEMP:  73; 6HR PCP:  0.10;

CAMP DOUGLAS   NOT AVBL
$$

WIZ011>013-019>022-031-037>040-048>050-221900-
NORTHEAST WISCONSIN

CITY           SKY/WX    TMP DP  RH WIND       PRES   REMARKS
ANTIGO         CLOUDY    68  67  96 SW12      29.75R
SHAWANO        CLOUDY    71  69  92 SW5       29.72S
OCONTO         CLOUDY    69  68  94 SW5       29.71F
STURGEON BAY   LGT RAIN  72  68  87 W5          N/A
6HR MIN TEMP:  65; 6HR MAX TEMP:  75;

GREEN BAY      CLOUDY    77  69  76 SW10      29.72F
6HR MIN TEMP:  65; 6HR MAX TEMP:  77;

MANITOWOC      NOT AVBL
APPLETON       PTSUNNY   75  64  69 SW10      29.73F
CLINTONVILLE   CLOUDY    72  68  88 SW5       29.73R
OSHKOSH        LGT RAIN  75  66  73 W5        29.75R
6HR MIN TEMP:  69; 6HR MAX TEMP:  77; 6HR PCP:  0.03;

$$

WIZ032>034-041-042-053>061-221900-
SOUTHWEST WISCONSIN

CITY           SKY/WX    TMP DP  RH WIND       PRES   REMARKS
LA CROSSE      LGT RAIN  70  68  93 NW12      29.75R
6HR MIN TEMP:  69; 6HR MAX TEMP:  76; 6HR PCP:  0.18;

SPARTA         CLOUDY    67  65  94 S6        29.76F
VIROQUA        CLOUDY    68  66  92 CALM      29.76F
BOSCOBEL       CLOUDY    73  68  84 VRB3      29.76R
6HR MIN TEMP:  67; 6HR MAX TEMP:  74; 6HR PCP:  0.12;

PRAIRIE DU CHI CLOUDY    70  68  95 CALM      29.74F
PLATTEVILLE    CLOUDY    79  68  69 S13       29.77S HX  81
$$

WIZ056-057-062-063-064-067-068-221900-
SOUTH CENTRAL WISCONSIN

CITY           SKY/WX    TMP DP  RH WIND       PRES   REMARKS
REEDSBURG      CLOUDY    68  68 100 W3        29.82R
BARABOO/DELLS  LGT RAIN  68  65  89 NW8G18    29.83R
LONE ROCK      NOT AVBL
MINERAL POINT  CLOUDY    79  70  73 S10       29.77R HX  81
MADISON        CLOUDY    77  67  71 SW3       29.74F
6HR MIN TEMP:  69; 6HR MAX TEMP:  78; 6HR PCP:  0.14;

MIDDLETON      CLOUDY    79  67  67 S14       29.73F HX  81
WATERTOWN      CLOUDY    76  70  80 S13       29.75F
MONROE         MOSUNNY   81  64  57 S17       29.78F HX  82
JANESVILLE     PTSUNNY   82  66  57 S12G17    29.77F HX  85
$$

WIZ051-052-058>065-066-070>072-221900-
SOUTHEAST WISCONSIN

CITY           SKY/WX    TMP DP  RH WIND       PRES   REMARKS
MILWAUKEE      PTSUNNY   85  67  54 SW23G29   29.76F HX  87
6HR MIN TEMP:  74; 6HR MAX TEMP:  85; 6HR PCP: TRACE;

WAUKESHA       MOSUNNY   79  64  61 SW10G21   29.78F HX  81
MILWAUKEE/TIMM SUNNY     79  64  61 SW6       29.77F HX  81
RACINE         CLOUDY    82  66  58 SW16G29   29.79F HX  84
6HR MIN TEMP:  75; 6HR MAX TEMP:  84;

KENOSHA        MOSUNNY   82  69  64 SW13      29.79F HX  85
6HR MIN TEMP:  75; 6HR MAX TEMP:  82; 6HR PCP: TRACE;

FOND DU LAC    LGT RAIN  74  66  76 S5        29.76R
6HR MIN TEMP:  69; 6HR MAX TEMP:  77; 6HR PCP:  0.05;

SHEBOYGAN      LGT RAIN  77  67  71 SW13      29.76S
6HR MIN TEMP:  69; 6HR MAX TEMP:  81; 6HR PCP:  0.06;

WEST BEND      CLOUDY    72  64  78 SW3       29.77S
JUNEAU         CLOUDY    72  66  81 S3        29.76F
$$

LSZ147-162-221900-
LAKE SUPERIOR

STATION/POSITION TIME  TEMP    WIND        PRES    WAVE
                       AIR SEA DIR/SP/G            HT/PER
                 (UTC) (F)     (DEG/KT/KT) (MB)    (FT/S)
W MID LAKE BUOY  1650   45 39  240/ 10/ 12 1004.7R
DEVILS ISLAND    1700   59     230/  8/ 11 1005.0R
SAXON HARBOR     1740   71     230/  2/  4 1006.1R
$$

LMZ867-665-643>646-221900-
LAKE MICHIGAN

STATION/POSITION TIME  TEMP    WIND        PRES    WAVE
                       AIR SEA DIR/SP/G            HT/PER
                 (UTC) (F)     (DEG/KT/KT) (MB)    (FT/S)
CHAMBERS ISLAND  1740   69     200/  4/  7 1005.4F
N MID LAKE BUOY  1650   58 54  200/ 10/ 12 1005.9F   3/ 5
NORTHPORT PIER   1740   70     260/  3/  8 1005.8S
KEWAUNEE LAKESHO 1730   63     180/  9/ 10 1006.6R
SHEBOYGAN LAKESH 1700   71     180/ 15/ 16 1007.2R
PORT WASHINGTON  1740   72     200/  3/  6 1008.5F
ATWATER BUOY     1639   71 55  260/  4/  6 1008.5R
MILWAUKEE LAKESH 1730   80     230/ 12/ 17   N/A
S MID LAKE BUOY  1650   66 61  200/ 16/ 17 1009.0R   2/ 4
KENOSHA   LAKESH 1700   81     220/ 12/ 16 1008.8
$$

TC  - TEMPERATURE IN CELSIUS
VSB - VISIBILITY IN STATUTE MILES
WCI - WIND CHILL INDEX
HX  - HEAT INDEX





USA.gov is the U.S. government's official web portal to all federal, state and local government web resources and services.